Погода в Минском

Россия / Костромская область     57°41′26″N   41°01′23″E
темп.,
°C
ветер,
м/с
пор.,
м/с
влажн.,
%
обл.,
%
осадки,
мм/ч
давл.,
гПа
погр.,
м
3 марта, ср
ср300:00−6сз5129123 0.0 1007400
03:00−8сз4119361 0.0 1009315
06:00−9зсз4119599 0.0 1009288
09:00−6сз61091100 0.1 1010634
12:00−4зсз6989100 0.0 1009697
15:00−2з599199 0.1 1008850
18:00−1з61296100 0.4 1005724
21:00−2з61293100 0.7 1004755
4 марта, чт
чт400:00−2зюз61394100 0.1 1000663
03:00−1зюз61393100 0.3 997714
06:00−2зюз61394100 0.1 993573
09:00−4зсз8148574 0.3 993851
12:00−3зсз81287100 0.1 995942
15:00−2зсз71088100 0.2 997868
18:00−4ссз4891100 0.9 999322
21:00−9ссз359197 1.0 100182
5 марта, пт
пт500:00−12с239468 0.0 100221
03:00−15ссз119538 0.0 100320
06:00−15з129629 0.0 100420
09:00−13з239647 0.0 1005123
12:00−8з238975 0.0 1006337
15:00−6зюз238887 0.0 1007501
18:00−8зюз239398 0.0 100827
21:00−9сз349697 0.3 101092
6 марта, сб
сб600:00−13сз239772 0.0 101125
03:00−14ссз239684 0.1 101354
06:00−17ссз339857 0.0 101457
09:00−17сз359437 0.0 1014170
12:00−12зсз358643 0.0 1014420
15:00−10з468967 0.1 1014644
18:00−11з3795100 0.1 1013174
21:00−13зюз359697 0.2 1012125
7 марта, вс
вс700:00−15ююз349636 0.0 101081
03:00−13ю5119261 0.0 1006294
06:00−10ююз81493100 0.5 1000720
09:00−7ююз91494100 1.6 995899
12:00−4ююз91494100 2.2 9911092
15:00−5з71279100 3.9 9901075
18:00−10зсз337867 0.0 99044
21:00−11ююз238483 0.0 99128